Weather History for Big Rapids, MI

Change the Weather History Date:

Thursday, May 1, 2014

  Actual Average Record
Temperature  
Mean Temperature 40 °F -  
Max Temperature 46 °F 62 °F 84 °F (1992)
Min Temperature 35 °F 37 °F 24 °F (1978)
Degree Days  
Heating Degree Days 24    
Moisture  
Dew Point 38 °F    
Average Humidity 85    
Maximum Humidity 100    
Minimum Humidity 71    
Precipitation  
Precipitation 0.00 in - - ()
Sea Level Pressure  
Sea Level Pressure 29.69 in    
Wind  
Wind Speed 7 mph (SW)    
Max Wind Speed 18 mph    
Max Gust Speed 25 mph    
Visibility 9 miles    
Events Rain    
Averages and records for this station are not official NWS values.
T = Trace of Precipitation, MM = Missing Value Source: NWS Daily Summary

Daily Weather History Graph

Daily Weather History Graph

Search for Another Location

Airport:

Trip Planner

Search our weather history database for the weather conditions in past years. The results will help you decide how hot, cold, wet, or windy it might be!

Date:

Astronomy

May. 01, 2014 Rise Set
Actual Time 6:34 AM EDT 8:44 PM EDT
Civil Twilight 6:02 AM EDT 9:16 PM EDT
Nautical Twilight 5:23 AM EDT 9:55 PM EDT
Astronomical Twilight 4:41 AM EDT 10:38 PM EDT
Moon 8:19 AM EDT (5/1) 11:19 PM EDT (5/1)
Length of Visible Light 15h 13m
Length of Day
14h 10m
Waxing Crescent, 6% of the Moon is Illuminated
May 1
Waxing Crescent
May 6
First Quarter
May 14
Full
May 21
Last Quarter
May 28
New

Hourly Weather History & Observations

Time (EDT) Temp. Windchill Dew Point Humidity Pressure Visibility Wind Dir Wind Speed Gust Speed Precip Events Conditions
12:15 AM 43.7 °F 38.1 °F 42.4 °F 95% 29.76 in 10.0 mi WSW 10.4 mph 16.1 mph N/A   Overcast
12:35 AM 43.2 °F 38.4 °F 39.6 °F 87% 29.76 in 10.0 mi SW 8.1 mph - N/A   Overcast
12:54 AM 43.2 °F 41.5 °F 39.9 °F 88% 29.75 in 10.0 mi SW 3.5 mph - N/A   Overcast
1:15 AM 43.2 °F - 39.4 °F 86% 29.75 in 10.0 mi Calm Calm - N/A   Overcast
1:34 AM 43.0 °F - 39.2 °F 86% 29.75 in 10.0 mi Calm Calm - N/A   Overcast
1:55 AM 42.4 °F 37.0 °F 38.5 °F 86% 29.75 in 10.0 mi SW 9.2 mph - N/A   Overcast
2:15 AM 41.2 °F 37.3 °F 37.6 °F 87% 29.74 in 10.0 mi SW 5.8 mph - N/A   Mostly Cloudy
2:34 AM 40.5 °F 36.5 °F 37.6 °F 89% 29.74 in 10.0 mi SW 5.8 mph - N/A   Clear
2:55 AM 39.7 °F 37.6 °F 37.9 °F 93% 29.74 in 10.0 mi SW 3.5 mph - N/A   Scattered Clouds
3:14 AM 39.4 °F 37.2 °F 39.2 °F 99% 29.73 in 10.0 mi SW 3.5 mph - N/A   Mostly Cloudy
3:34 AM 39.7 °F 37.6 °F 39.0 °F 97% 29.73 in 10.0 mi SW 3.5 mph - N/A   Mostly Cloudy
3:55 AM 39.9 °F 36.7 °F 36.9 °F 89% 29.72 in 10.0 mi SW 4.6 mph - N/A   Overcast
4:14 AM 39.2 °F 37.0 °F 36.1 °F 89% 29.72 in 10.0 mi South 3.5 mph - N/A   Scattered Clouds
4:34 AM 38.5 °F - 35.8 °F 90% 29.71 in 10.0 mi Calm Calm - N/A   Clear
5:14 AM 37.4 °F - 37.4 °F 100% 29.70 in 10.0 mi Calm Calm - N/A   Clear
5:35 AM 36.5 °F 30.3 °F 36.5 °F 100% 29.70 in 10.0 mi SSW 8.1 mph - N/A   Mostly Cloudy
5:55 AM 36.5 °F - 36.5 °F 100% 29.69 in 10.0 mi Calm Calm - N/A   Mostly Cloudy
6:14 AM 35.4 °F - 35.4 °F 100% 29.69 in 7.0 mi Calm Calm - N/A   Scattered Clouds
6:35 AM 36.0 °F 31.1 °F 36.0 °F 100% 29.69 in 7.0 mi South 5.8 mph - N/A   Mostly Cloudy
6:54 AM 36.0 °F - 36.0 °F 100% 29.68 in 5.0 mi Calm Calm - N/A   Overcast
7:14 AM 37.2 °F - 37.2 °F 100% 29.68 in 3.0 mi Calm Calm - N/A   Overcast
7:35 AM 37.8 °F - 37.8 °F 100% 29.68 in 5.0 mi Calm Calm - N/A   Overcast
8:15 AM 40.1 °F 36.9 °F 40.1 °F 100% 29.68 in 7.0 mi South 4.6 mph - N/A   Overcast
8:35 AM 41.4 °F 38.4 °F 41.4 °F 100% 29.68 in 10.0 mi South 4.6 mph - N/A   Overcast
8:54 AM 42.3 °F 40.5 °F 42.3 °F 100% 29.68 in 10.0 mi South 3.5 mph - N/A   Overcast
9:15 AM 43.2 °F 39.7 °F 42.6 °F 98% 29.69 in 10.0 mi SSW 5.8 mph - N/A   Overcast
9:34 AM 44.1 °F 39.5 °F 38.5 °F 81% 29.68 in 10.0 mi SW 8.1 mph - N/A   Overcast
10:14 AM 44.6 °F 41.4 °F 37.0 °F 75% 29.68 in 10.0 mi SW 5.8 mph - N/A   Overcast
10:55 AM 44.2 °F 40.3 °F 37.8 °F 78% 29.68 in 10.0 mi WSW 6.9 mph - N/A   Overcast
11:14 AM 42.8 °F 39.3 °F 39.6 °F 88% 29.68 in 7.0 mi West 5.8 mph - N/A   Light Drizzle
11:35 AM 43.2 °F 39.0 °F 38.5 °F 84% 29.68 in 10.0 mi SW 6.9 mph 17.3 mph N/A   Overcast
11:55 AM 44.6 °F 40.2 °F 39.0 °F 81% 29.68 in 7.0 mi SSW 8.1 mph 17.3 mph N/A   Overcast
12:14 PM 46.2 °F 40.8 °F 39.0 °F 76% 29.67 in 10.0 mi SSW 11.5 mph 17.3 mph N/A   Overcast
12:35 PM 44.2 °F 38.8 °F 38.3 °F 80% 29.67 in 7.0 mi West 10.4 mph - N/A Rain Light Rain
12:54 PM 45.3 °F 41.1 °F 39.7 °F 81% 29.67 in 10.0 mi WSW 8.1 mph - N/A   Overcast
1:14 PM 43.9 °F 36.5 °F 38.8 °F 82% 29.67 in 7.0 mi WSW 16.1 mph - N/A   Overcast
1:35 PM 44.1 °F 37.7 °F 38.7 °F 81% 29.67 in 10.0 mi SW 12.7 mph - N/A   Overcast
1:54 PM 44.6 °F 39.7 °F 38.3 °F 79% 29.67 in 10.0 mi WSW 9.2 mph - N/A   Overcast
2:15 PM 43.5 °F 40.1 °F 37.8 °F 80% 29.68 in 10.0 mi SW 5.8 mph - N/A Rain Light Rain
2:35 PM 44.4 °F 39.5 °F 38.1 °F 79% 29.67 in 10.0 mi WSW 9.2 mph 16.1 mph N/A Rain Light Rain
2:54 PM 45.7 °F 40.2 °F 38.7 °F 76% 29.66 in 10.0 mi SW 11.5 mph - N/A Rain Light Rain
3:15 PM 46.6 °F - 39.4 °F 76% 29.66 in 10.0 mi SW 8.1 mph - N/A   Overcast
3:34 PM 46.9 °F - 38.1 °F 71% 29.66 in 10.0 mi SSW 10.4 mph 18.4 mph N/A   Light Drizzle
3:55 PM 44.8 °F 39.0 °F 39.2 °F 81% 29.66 in 5.0 mi WSW 11.5 mph 19.6 mph N/A Rain Light Rain
4:15 PM 45.3 °F 39.0 °F 40.1 °F 82% 29.66 in 7.0 mi SW 13.8 mph 21.9 mph N/A Rain Light Rain
4:34 PM 44.2 °F 36.4 °F 38.3 °F 80% 29.67 in 7.0 mi SW 18.4 mph 25.3 mph N/A   Overcast
4:55 PM 45.5 °F 38.9 °F 38.7 °F 77% 29.67 in 10.0 mi SW 15.0 mph 21.9 mph N/A   Overcast
5:15 PM 44.4 °F 37.9 °F 37.4 °F 76% 29.67 in 10.0 mi SW 13.8 mph 23.0 mph N/A   Overcast
5:34 PM 43.9 °F 38.3 °F 37.4 °F 78% 29.68 in 10.0 mi SW 10.4 mph 19.6 mph N/A   Overcast
6:14 PM 44.8 °F 39.4 °F 36.5 °F 73% 29.68 in 10.0 mi West 10.4 mph 17.3 mph N/A   Overcast
6:34 PM 44.2 °F 37.6 °F 35.8 °F 72% 29.68 in 10.0 mi West 13.8 mph 19.6 mph N/A   Overcast
6:55 PM 44.2 °F 38.0 °F 36.1 °F 73% 29.69 in 10.0 mi WSW 12.7 mph - N/A   Overcast
7:14 PM 44.6 °F 38.4 °F 36.5 °F 73% 29.69 in 10.0 mi WSW 12.7 mph - N/A   Overcast
7:34 PM 44.6 °F 38.8 °F 36.7 °F 74% 29.69 in 10.0 mi WSW 11.5 mph - N/A   Overcast
7:55 PM 44.2 °F 38.8 °F 36.5 °F 74% 29.69 in 10.0 mi WSW 10.4 mph 18.4 mph N/A   Overcast
8:14 PM 43.9 °F 39.9 °F 36.9 °F 76% 29.70 in 10.0 mi WSW 6.9 mph - N/A   Overcast
8:35 PM 43.7 °F 38.1 °F 37.2 °F 78% 29.70 in 10.0 mi WSW 10.4 mph - N/A   Overcast
8:55 PM 43.5 °F 38.3 °F 37.0 °F 78% 29.70 in 10.0 mi WSW 9.2 mph - N/A   Overcast
9:14 PM 43.3 °F 39.2 °F 37.4 °F 80% 29.70 in 10.0 mi WSW 6.9 mph - N/A   Overcast
9:35 PM 43.2 °F 39.7 °F 37.6 °F 81% 29.70 in 10.0 mi WSW 5.8 mph - N/A   Overcast
9:54 PM 43.0 °F 40.3 °F 38.3 °F 84% 29.70 in 10.0 mi WSW 4.6 mph - N/A   Overcast
10:14 PM 43.0 °F 40.3 °F 38.3 °F 84% 29.70 in 10.0 mi WSW 4.6 mph - N/A   Overcast
10:35 PM 43.0 °F 39.5 °F 38.7 °F 85% 29.70 in 10.0 mi SW 5.8 mph - N/A   Overcast
10:54 PM 42.4 °F 37.5 °F 39.0 °F 88% 29.70 in 10.0 mi WSW 8.1 mph - N/A   Overcast
11:14 PM 42.8 °F 38.0 °F 39.2 °F 87% 29.70 in 10.0 mi WSW 8.1 mph - N/A   Overcast
11:35 PM 42.8 °F 38.6 °F 39.6 °F 88% 29.70 in 10.0 mi SW 6.9 mph - N/A   Overcast
11:54 PM 42.8 °F 38.6 °F 40.5 °F 91% 29.70 in 10.0 mi SW 6.9 mph - N/A   Overcast